Regional Weather Roundup
Issued by NWS Cleveland, OH

Home | Current Version | Previous Version | Graphics & Text | Print | Product List | Glossary On
Versions: 1 2 3 4 5 6 7 8 9 10 11 12 13 14 15 16 17 18 19 20 21 22 23 24 25 26 27 28 29 30 31 32 33 34 35 36 37 38 39 40 41 42 43 44 45 46 47 48 49 50
416
ASUS41 KCLE 181702
RWRCLE
OHIO REGIONAL WEATHER ROUNDUP
NATIONAL WEATHER SERVICE CLEVELAND, OH
1200 PM EST MON DEC 18 2017

NOTE: "FAIR" INDICATES FEW OR NO CLOUDS BELOW 12,000 FEET WITH NO
SIGNIFICANT WEATHER AND/OR OBSTRUCTIONS TO VISIBILITY.

OHZ001>008-015>018-024>027-034-035-043-044-181800-
   NORTHWEST OHIO

CITY           SKY/WX    TMP DP  RH WIND       PRES   REMARKS
DEFIANCE       CLOUDY    43  40  89 SW13G20   29.96F
FINDLAY        CLOUDY    43  40  89 SW15      29.96F
TOLEDO EXPRESS CLOUDY    42  42 100 SW9       29.94F
TOLEDO EXEC    CLOUDY    42  40  92 SW16      29.95F FOG
LIMA           CLOUDY    42  41  96 SW20G25   29.98F
$$

OHZ009>014-019>023-028>033-038-089-181800-
   NORTHEAST OHIO

CITY           SKY/WX    TMP DP  RH WIND       PRES   REMARKS
CLE-HOPKINS    CLOUDY    41  37  86 SW13      29.99F
CLE-LAKEFRONT  CLOUDY    42  37  82 S13G23    29.96F
CUY CO. ARPT   CLOUDY    41  32  70 S12       29.96F HAZE
LORAIN-ELYRIA  CLOUDY    39  33  79 SW15      29.97F HAZE
ASHTABULA      CLOUDY    37  35  92 S12       29.95F
AKRON-CANTON   CLOUDY    38  35  89 SW13      29.97F FOG
WOOSTER        CLOUDY    38  37  97 SW12      29.98F FOG
MANSFIELD      CLOUDY    40  39  97 SW14      29.98F FOG
YOUNGSTOWN     CLOUDY    38  36  92 S6        29.97F FOG
$$

OHZ042-051>053-060>062-070>072-077>081-181800-
  SOUTHWEST OHIO

CITY           SKY/WX    TMP DP  RH WIND       PRES   REMARKS
CINC-COVINGTON DRIZZLE   45  45 100 SW9       30.08F FOG
CINC-LUNKEN    CLOUDY    46  45  96 S8        30.11F FOG
HAMILTON       CLOUDY    47  44  90 SW7       30.08F
DAYTON         CLOUDY    43  43 100 SW16      30.04F
WRIGHT-PAT AFB CLOUDY    44  44 100 SW14      30.04F
DAYTON GENERAL CLOUDY    44  42  93 SW15      30.05F
WILMINGTON     CLOUDY    43  43 100 SW14      30.05F FOG
$$

OHZ036-037-039>041-045>050-054>059-063>069-073>076-082>088-181800-
  CENTRAL AND SOUTHEAST OHIO

CITY           SKY/WX    TMP DP  RH WIND       PRES   REMARKS
COLUMBUS       DRIZZLE   44  42  93 SW13      30.03F
OSU AIRPORT    CLOUDY    44  42  93 SW12      30.03F
BOLTON FIELD   CLOUDY    43  43 100 SW14G22   30.04F
RICKENBACK AFB CLOUDY    44  43  99 SW13      30.04F
NEWARK         CLOUDY    43  41  93 SW14      30.02F
MARION         CLOUDY    41  39  93 SW13      30.00F FOG
LANCASTER      CLOUDY    44  42  93 SW14      30.05F
ZANESVILLE     CLOUDY    43  40  89 SW8       30.04F FOG
NEW PHILLY     NOT AVBL
$$




USA.gov is the U.S. government's official web portal to all federal, state and local government web resources and services.